Change the Weather History Date:

Sunday, January 6, 2013

  Actual Average Record
Temperature  
Mean Temperature 44 °F -  
Max Temperature 53 °F 44 °F 64 °F (2015)
Min Temperature 35 °F 32 °F 17 °F (1982)
Degree Days  
Heating Degree Days 21    
Moisture  
Dew Point 28 °F    
Average Humidity 60    
Maximum Humidity 81    
Minimum Humidity 32    
Precipitation  
Precipitation 0.06 in - - ()
Sea Level Pressure  
Sea Level Pressure 30.03 in    
Wind  
Wind Speed 3 mph (NNW)    
Max Wind Speed 9 mph    
Max Gust Speed -    
Visibility 4 miles    
Events Snow    
Averages and records for this station are not official NWS values.
T = Trace of Precipitation, MM = Missing Value Source: NWS Daily Summary

Daily Weather History Graph

Daily Weather History Graph

Search for Another Location

Airport or City:

Trip Planner

Search our weather history database for the weather conditions in past years. The results will help you decide how hot, cold, wet, or windy it might be!

Date:

Astronomy

Jan. 06, 2013 Rise Set
Actual Time 7:22 AM PST 4:55 PM PST
Civil Twilight 6:52 AM PST 5:25 PM PST
Nautical Twilight 6:19 AM PST 5:58 PM PST
Astronomical Twilight 5:47 AM PST 6:30 PM PST
Moon 1:43 AM PST (1/6) 12:25 PM PST (1/6)
Length of Visible Light 10h 32m
Length of Day
9h 32m
Waning Crescent, 32% of the Moon is Illuminated
Jan 6
Waning Crescent
Jan 11
New
Jan 18
First Quarter
Jan 26
Full
Feb 3
Last Quarter

Hourly Weather History & Observations

Time (PST) Temp. Windchill Dew Point Humidity Pressure Visibility Wind Dir Wind Speed Gust Speed Precip Events Conditions
12:52 AM 37.9 °F - 19.9 °F 48% 29.92 in 10.0 mi Calm Calm - N/A   Overcast
1:52 AM 48.9 °F - 19.9 °F 32% 29.88 in 10.0 mi South 3.5 mph - N/A   Overcast
2:52 AM 48.9 °F - 23.0 °F 36% 29.91 in 4.0 mi SSE 8.1 mph - N/A   Haze
2:57 AM 53.6 °F - 26.6 °F 35% 30.04 in 1.8 mi South 6.9 mph - N/A   Haze
3:12 AM 39.2 °F - 26.6 °F 61% 30.04 in 1.2 mi Calm Calm - 0.01 in   Haze
3:17 AM 39.2 °F - 26.6 °F 61% 30.04 in 1.5 mi Calm Calm - 0.01 in   Haze
3:29 AM 35.6 °F - 28.4 °F 75% 30.04 in 2.0 mi Calm Calm - 0.01 in Snow Light Snow
3:47 AM 35.6 °F 32.8 °F 28.4 °F 75% 30.03 in 1.5 mi NE 3.5 mph - 0.01 in Snow Light Snow
3:52 AM 37.0 °F 34.5 °F 27.0 °F 67% 29.94 in 1.2 mi Variable 3.5 mph - 0.02 in Snow Light Snow
4:01 AM 37.4 °F 33.8 °F 26.6 °F 65% 30.03 in 1.2 mi NE 4.6 mph - 0.00 in Snow Light Snow
4:28 AM 39.2 °F 35.0 °F 26.6 °F 61% 30.03 in 1.0 mi Variable 5.8 mph - 0.01 in   Haze
4:48 AM 39.2 °F 37.0 °F 26.6 °F 61% 30.03 in 0.8 mi East 3.5 mph - 0.03 in   Haze
4:52 AM 39.0 °F 35.7 °F 28.0 °F 65% 29.93 in 0.8 mi NE 4.6 mph - 0.03 in   Haze
4:57 AM 37.4 °F 34.9 °F 28.4 °F 70% 30.03 in 1.0 mi ENE 3.5 mph - 0.00 in Snow Light Snow
5:04 AM 39.2 °F 37.0 °F 28.4 °F 65% 30.03 in 2.0 mi East 3.5 mph - 0.00 in   Unknown
5:13 AM 37.4 °F 34.9 °F 28.4 °F 70% 30.03 in 7.0 mi Variable 3.5 mph - 0.00 in   Overcast
5:40 AM 42.8 °F 39.3 °F 26.6 °F 53% 30.03 in 2.5 mi NE 5.8 mph - 0.01 in   Haze
5:49 AM 44.6 °F 42.2 °F 28.4 °F 53% 30.03 in 4.0 mi NNE 4.6 mph - 0.01 in   Haze
5:52 AM 44.1 °F 40.8 °F 28.0 °F 53% 29.92 in 6.0 mi NNE 5.8 mph - 0.01 in   Haze
6:17 AM 42.8 °F 37.5 °F 26.6 °F 53% 30.03 in 2.0 mi NNW 9.2 mph - N/A   Haze
6:25 AM 42.8 °F 38.6 °F 26.6 °F 53% 30.03 in 1.5 mi NNW 6.9 mph - N/A   Haze
6:31 AM 39.2 °F 35.9 °F 28.4 °F 65% 30.04 in 3.0 mi NNW 4.6 mph - N/A   Haze
6:40 AM 37.4 °F 32.8 °F 28.4 °F 70% 30.03 in 9.0 mi NW 5.8 mph - N/A   Overcast
6:52 AM 37.0 °F 33.3 °F 27.0 °F 67% 29.94 in 10.0 mi NNW 4.6 mph - N/A   Overcast
7:52 AM 39.0 °F 36.8 °F 26.1 °F 60% 30.00 in 9.0 mi NNE 3.5 mph - 0.00 in   Overcast
8:52 AM 39.0 °F 36.8 °F 26.1 °F 60% 29.96 in 10.0 mi NNE 3.5 mph - N/A   Overcast
9:35 AM 48.2 °F - 26.6 °F 43% 30.07 in 10.0 mi Calm Calm - N/A   Mostly Cloudy
9:52 AM 43.0 °F - 27.0 °F 53% 30.01 in 10.0 mi Calm Calm - N/A   Overcast
10:13 AM 41.0 °F - 28.4 °F 61% 30.08 in 10.0 mi Calm Calm - N/A   Mostly Cloudy
10:40 AM 41.0 °F - 28.4 °F 61% 30.08 in 2.5 mi Calm Calm - N/A   Haze
10:43 AM 37.4 °F - 30.2 °F 75% 30.08 in 1.0 mi Calm Calm - N/A   Haze
10:52 AM 42.1 °F 40.2 °F 28.9 °F 60% 29.99 in 1.8 mi West 3.5 mph - N/A   Haze
10:55 AM 48.2 °F - 28.4 °F 46% 30.07 in 0.8 mi Calm Calm - N/A   Haze
11:03 AM 48.2 °F - 28.4 °F 46% 30.07 in 0.2 mi West 3.5 mph - N/A   Haze
11:24 AM 42.8 °F - 28.4 °F 57% 30.07 in 1.0 mi Calm Calm - N/A   Haze
11:26 AM 42.8 °F - 30.2 °F 61% 30.07 in 2.0 mi Calm Calm - N/A   Haze
11:33 AM 41.0 °F - 30.2 °F 65% 30.06 in 4.0 mi Calm Calm - N/A   Haze
11:42 AM 41.0 °F 39.0 °F 28.4 °F 61% 30.06 in 10.0 mi NNW 3.5 mph - N/A   Overcast
11:52 AM 43.0 °F 40.3 °F 28.9 °F 58% 29.98 in 1.8 mi WNW 4.6 mph - N/A   Haze
11:55 AM 39.2 °F 37.0 °F 30.2 °F 70% 30.05 in 0.8 mi NW 3.5 mph - N/A   Haze
12:09 PM 39.2 °F 35.9 °F 30.2 °F 70% 30.05 in 1.8 mi NW 4.6 mph - N/A   Haze
12:11 PM 39.2 °F 35.0 °F 30.2 °F 70% 30.05 in 3.0 mi NW 5.8 mph - N/A   Haze
12:36 PM 48.2 °F - 30.2 °F 50% 30.05 in 1.8 mi West 3.5 mph - N/A   Haze
12:43 PM 42.8 °F 40.1 °F 30.2 °F 61% 30.05 in 3.0 mi WNW 4.6 mph - N/A   Haze
12:52 PM 42.1 °F 40.2 °F 30.0 °F 62% 30.01 in 10.0 mi NW 3.5 mph - N/A   Mostly Cloudy
12:57 PM 39.2 °F 37.0 °F 30.2 °F 70% 30.04 in 1.8 mi West 3.5 mph - N/A   Haze
1:06 PM 46.4 °F 44.3 °F 30.2 °F 53% 30.04 in 4.0 mi West 4.6 mph - N/A   Haze
1:20 PM 42.8 °F - 30.2 °F 61% 30.03 in 10.0 mi Calm Calm - N/A   Scattered Clouds
1:52 PM 53.1 °F - 30.9 °F 43% 29.92 in 10.0 mi WSW 5.8 mph - N/A   Mostly Cloudy
2:13 PM 48.2 °F - 30.2 °F 50% 30.05 in 1.2 mi West 6.9 mph - N/A   Haze
2:15 PM 48.2 °F - 32.0 °F 54% 30.05 in 0.5 mi West 5.8 mph - N/A   Haze
2:22 PM 46.4 °F 45.2 °F 32.0 °F 57% 30.05 in 0.2 mi Variable 3.5 mph - N/A   Haze
2:46 PM 39.2 °F 35.0 °F 30.2 °F 70% 30.05 in 1.5 mi NW 5.8 mph - N/A   Haze
2:48 PM 39.2 °F 35.0 °F 30.2 °F 70% 30.05 in 4.0 mi NW 5.8 mph - N/A   Haze
2:52 PM 37.9 °F 34.4 °F 30.9 °F 76% 29.98 in 6.0 mi NW 4.6 mph - N/A   Haze
3:11 PM 41.0 °F - 30.2 °F 65% 30.04 in 10.0 mi Calm Calm - N/A   Overcast
3:50 PM 39.2 °F 34.2 °F 30.2 °F 70% 30.06 in 1.5 mi NW 6.9 mph - N/A   Haze
3:52 PM 39.9 °F 35.8 °F 30.9 °F 70% 30.02 in 1.0 mi NW 5.8 mph - N/A   Haze
3:59 PM 39.2 °F 34.2 °F 30.2 °F 70% 30.06 in 0.8 mi NNW 6.9 mph - N/A   Haze
4:03 PM 42.8 °F 39.3 °F 30.2 °F 61% 30.05 in 1.5 mi North 5.8 mph - N/A   Haze
4:05 PM 41.0 °F 38.0 °F 30.2 °F 65% 30.05 in 3.0 mi North 4.6 mph - N/A   Haze
4:15 PM 39.2 °F 35.9 °F 30.2 °F 70% 30.06 in 10.0 mi NW 4.6 mph - N/A   Scattered Clouds
4:42 PM 46.4 °F 45.2 °F 30.2 °F 53% 30.06 in 1.0 mi West 3.5 mph - N/A   Haze
4:45 PM 44.6 °F 43.1 °F 30.2 °F 57% 30.06 in 0.2 mi WNW 3.5 mph - N/A   Haze
4:52 PM 44.1 °F 42.5 °F 30.9 °F 60% 30.00 in 0.2 mi WNW 3.5 mph - N/A   Haze
5:37 PM 35.6 °F - 30.2 °F 81% 30.06 in 1.0 mi Calm Calm - N/A   Haze
5:43 PM 37.4 °F - 30.2 °F 75% 30.06 in 0.2 mi Calm Calm - N/A   Haze
5:52 PM 37.0 °F - 30.0 °F 76% 30.01 in 0.2 mi Calm Calm - N/A   Haze
6:47 PM 37.4 °F 34.9 °F 28.4 °F 70% 30.07 in 1.0 mi NE 3.5 mph - N/A   Haze
6:49 PM 35.6 °F - 28.4 °F 75% 30.07 in 4.0 mi Calm Calm - N/A   Haze
6:52 PM 36.0 °F 33.3 °F 28.9 °F 76% 30.06 in 10.0 mi NE 3.5 mph - N/A   Scattered Clouds
7:52 PM 41.0 °F 36.4 °F 24.1 °F 51% 30.04 in 10.0 mi NE 6.9 mph - N/A   Clear
8:52 PM 42.1 °F 39.2 °F 24.1 °F 49% 30.07 in 10.0 mi NNE 4.6 mph - N/A   Clear
9:52 PM 43.0 °F 38.2 °F 21.9 °F 43% 30.03 in 10.0 mi NE 8.1 mph - N/A   Clear
10:52 PM 41.0 °F 38.0 °F 21.9 °F 47% 30.05 in 10.0 mi Variable 4.6 mph - N/A   Clear
11:52 PM 42.1 °F 37.7 °F 21.9 °F 45% 30.04 in 10.0 mi Variable 6.9 mph - N/A   Clear